Regional Weather Roundup
Issued by NWS

Home | Current Version | Previous Version | Text Only | Print | Product List | Glossary On
Versions: 1 2 3 4 5 6 7 8 9 10 11 12 13 14 15 16 17 18 19 20 21 22 23 24 25 26 27 28 29 30 31 32 33 34 35 36 37 38 39 40 41 42 43 44 45 46 47 48 49 50
000
ASUS42 KKEY 131310
RWRKEY

FLORIDA REGIONAL WEATHER ROUNDUP FOR THE FLORIDA KEYS
NATIONAL WEATHER SERVICE KEY WEST FLORIDA
900 AM EDT SUN JUL 13 2014

...SOUTH FLORIDA AND THE KEYS...

CITY           SKY/WX    TMP DP  RH WIND       PRES   REMARKS
FORT MYERS     SUNNY     79  74  84 E7        30.09R
SW REGIONAL AP SUNNY     78  74  87 SE6       30.10R
NAPLES         SUNNY     79  76  90 E7        30.09R
MIAMI          MOSUNNY   84  74  71 SE12G20   30.08R HX  91
WEST KENDALL   MOSUNNY   85  75  72 SE8       30.08R HX  93
HOMESTEAD      SUNNY     84  64  50 SE9       30.08R
MARATHON       CLOUDY    85  75  72 SE7       30.07S HX  93
BOCA CHICA NAS PTSUNNY   86  74  67 E12       30.06S HX  94
KEY WEST INTL  SUNNY     85  74  69 SE9       30.07R HX  92

...INTERNATIONAL WEATHER...

CITY           SKY/WX    TMP DP  RH WIND       PRES   REMARKS
NASSAU BAHAMAS MOSUNNY   86  73  66 SE8       30.09F HX  93
CANCUN MEXICO  MOSUNNY   81  77  89 CALM      30.04R
COZUMEL MEXICO MOSUNNY   77  75  94 E3        30.03R

ADJACENT COASTAL WATERS...

STATION/POSITION TIME  SKY/WX   TEMP    WIND        PRES    WAVE
                                AIR SEA DIR/SP/G            HT/PER
                 (UTC)          (F)     (DEG/KT/KT) (MB)    (FT/S)
PULASKI SHOAL LI 1300            83     120/ 10/ 12 1018.3R
SAND KEY         1300            83     120/ 11/ 13 1017.9R
SOMBRERO KEY     1300            84     130/ 11/ 12 1018.8S
LONG KEY         1200            83 85  130/ 15/ 17 1018.9R
MOLASSES REEF    1300            83 85  160/  9/ 11 1018.4R
FOWEY ROCKS      1300            82 85  140/ 15/ 18 1018.5R
Buoy 42080       NOT AVBL

$$


USA.gov is the U.S. government's official web portal to all federal, state and local government web resources and services.